DW4273 Weather Reports


time (UTC)temp
C
wind
direction
speed
KPH
gust
KPH
rain 1hr
cm
rain 24hr
cm
rain mn
cm
humidity
%
barometer
mb
20260508115015 8 225 6.4 12.9 0.00 0.08 0.08 84 1010.2
20260508114036 7 203 9.7 14.5 0.00 0.08 0.08 86 1010.2
20260508113015 7 180 1.6 6.4 0.00 0.08 0.08 90 1010.1
20260508112015 6 0.0 3.2 0.00 0.08 0.08 89 1010.1
20260508111015 6 0.0 1.6 0.00 0.08 0.08 89 1009.9
20260508110016 6 0.0 0.0 0.03 0.08 0.08 88 1009.8
20260508105056 6 0.0 0.0 0.03 0.08 0.08 87 1009.8
20260508104055 7 0.0 0.0 0.03 0.08 0.08 86 1010.1
20260508103056 7 0.0 0.0 0.03 0.08 0.08 87 1010.2
20260508102101 7 270 1.6 6.4 0.03 0.08 0.08 88 1010.5
20260508101056 7 248 3.2 19.3 0.03 0.08 0.08 88 1010.5
20260508100015 6 0.0 0.0 0.00 0.05 0.05 87 1010.3
20260508095015 7 0.0 0.0 0.00 0.05 0.05 86 1009.8
20260508094036 7 0.0 0.0 0.03 0.05 0.05 86 1009.7
20260508093035 7 180 1.6 6.4 0.05 0.05 0.05 85 1009.7
20260508092015 7 0.0 3.2 0.05 0.05 0.05 84 1009.9
20260508091035 7 248 3.2 8.0 0.05 0.05 0.05 83 1010.2
20260508090056 8 225 4.8 9.7 0.05 0.05 0.05 81 1010.0
20260508085015 8 248 6.4 17.7 0.05 0.05 0.05 80 1010.0
20260508084035 8 270 17.7 32.2 0.03 0.03 0.03 79 1010.4
20260508083017 8 248 14.5 25.7 0.00 0.00 0.00 79 1010.3
20260508082016 7 225 12.9 19.3 0.00 0.00 0.00 79 1010.0
20260508081015 7 225 12.9 19.3 0.00 0.00 0.00 79 1010.0
20260508080016 7 225 11.3 19.3 0.00 0.00 0.00 80 1010.2
20260508075036 7 203 6.4 14.5 0.00 0.00 0.00 80 1010.3
20260508074015 7 203 3.2 9.7 0.00 0.00 0.00 80 1010.2
20260508073113 7 225 6.4 11.3 0.00 0.00 0.00 79 1010.3
20260508072515 7 203 4.8 12.9 0.00 0.00 0.00 79 1010.4
20260508071536 7 225 6.4 12.9 0.00 0.00 0.00 79 1010.4
20260508070515 7 225 6.4 14.5 0.00 0.00 0.00 79 1010.5
20260508065516 8 225 8.0 14.5 0.00 0.00 0.00 79 1010.7
20260508064516 8 225 9.7 16.1 0.00 0.00 0.00 80 1010.7
20260508063515 8 248 11.3 19.3 0.00 0.00 0.00 79 1010.9
20260508061556 8 225 16.1 24.1 0.00 0.00 0.00 74 1011.0
20260508060516 8 225 11.3 17.7 0.00 0.00 0.00 72 1010.8
20260508055515 8 203 6.4 14.5 0.00 0.00 0.00 73 1010.7
20260508054516 8 203 4.8 11.3 0.00 0.00 0.00 74 1010.8
20260508053516 8 203 3.2 11.3 0.00 0.00 0.00 74 1010.7
20260508052516 8 203 4.8 11.3 0.00 0.00 0.00 74 1010.8
20260508051515 7 203 1.6 8.0 0.00 0.00 0.00 76 1010.9
20260508050516 7 0.0 4.8 0.00 0.00 0.00 76 1011.0
20260508045516 7 0.0 1.6 0.00 0.00 0.00 77 1011.0
20260508044516 7 0.0 4.8 0.00 0.00 0.00 77 1010.9
20260508043516 7 0.0 6.4 0.00 0.00 0.00 76 1010.9
20260508043016 7 0.0 1.6 0.00 0.00 0.00 77 1010.9
20260508042016 7 0.0 0.0 0.00 0.00 0.00 75 1010.9
20260508041016 8 0.0 0.0 0.00 0.00 0.00 73 1010.8
20260508040016 8 0.0 4.8 0.00 0.00 0.00 73 1011.1
20260508035035 8 0.0 4.8 0.00 0.00 0.00 73 1011.2
20260508034015 8 0.0 0.0 0.00 0.00 0.00 73 1011.3
20260508033015 8 0.0 0.0 0.00 0.00 0.00 72 1011.3
20260508032015 8 0.0 0.0 0.00 0.00 0.00 70 1011.3
20260508031015 8 0.0 0.0 0.00 0.00 0.00 67 1011.5
20260508030015 9 270 1.6 9.7 0.00 0.00 0.00 66 1011.6
20260508025015 9 270 3.2 12.9 0.00 0.00 0.00 66 1011.7
20260508024016 9 270 11.3 17.7 0.00 0.00 0.00 64 1011.5
20260508023015 8 248 12.9 19.3 0.00 0.00 0.00 66 1011.3
20260508022015 7 248 3.2 9.7 0.00 0.00 0.00 73 1011.1
20260508021015 7 0.0 3.2 0.00 0.00 0.00 76 1010.9
20260508020015 7 0.0 0.0 0.00 0.00 0.00 77 1010.8
20260508015015 7 0.0 0.0 0.00 0.00 0.00 77 1010.6
20260508014015 7 0.0 0.0 0.00 0.00 0.00 75 1010.4
20260508013035 7 0.0 0.0 0.00 0.00 0.00 73 1010.4
20260508012015 7 0.0 0.0 0.00 0.00 0.00 70 1010.4
20260508011035 8 0.0 0.0 0.00 0.00 0.00 65 1010.2
20260508010015 8 0.0 0.0 0.00 0.00 0.00 65 1010.2
20260508005016 9 0.0 0.0 0.00 0.00 0.00 62 1010.2
20260508004015 10 0.0 0.0 0.00 0.00 0.00 55 1010.1
20260508003015 10 0.0 0.0 0.00 0.00 0.00 55 1010.1
20260508002015 11 0.0 0.0 0.00 0.00 0.00 49 1010.0
20260508001056 11 0.0 0.0 0.00 0.00 0.00 48 1009.9
20260508000015 11 0.0 0.0 0.00 0.00 0.00 48 1009.9
20260507235015 11 0.0 1.6 0.00 0.00 0.00 48 1009.7
20260507234036 11 0.0 3.2 0.00 0.00 0.00 47 1009.8
20260507233015 11 315 1.6 14.5 0.00 0.00 0.00 47 1009.7
20260507232036 12 338 3.2 11.3 0.00 0.00 0.00 46 1009.8
20260507231015 12 315 3.2 14.5 0.00 0.00 0.00 44 1009.8
20260507230016 12 293 1.6 16.1 0.00 0.00 0.00 45 1009.7
20260507225035 12 270 9.7 25.7 0.00 0.00 0.00 44 1009.8
20260507224015 12 315 3.2 11.3 0.00 0.00 0.00 46 1009.9
20260507223035 12 315 1.6 8.0 0.00 0.00 0.00 45 1009.8
20260507222036 12 293 3.2 17.7 0.00 0.00 0.00 45 1009.7
20260507221015 12 270 8.0 22.5 0.00 0.00 0.00 44 1009.8
20260507220035 12 315 6.4 14.5 0.00 0.00 0.00 45 1009.7
20260507215016 12 315 6.4 20.9 0.00 0.00 0.00 45 1009.6
20260507214025 13 270 9.7 20.9 0.00 0.00 0.00 44 1009.5
20260507213016 12 270 11.3 20.9 0.00 0.00 0.00 47 1009.5
20260507212016 12 270 6.4 17.7 0.00 0.00 0.00 46 1009.5
20260507211016 12 270 11.3 24.1 0.00 0.00 0.00 47 1009.5
20260507210035 12 248 12.9 30.6 0.00 0.00 0.00 46 1009.4
20260507205016 12 270 16.1 30.6 0.00 0.00 0.00 47 1009.4
20260507204015 12 270 11.3 29.0 0.00 0.00 0.00 51 1009.3
20260507203036 12 270 16.1 32.2 0.00 0.00 0.00 48 1009.3
20260507202016 12 248 16.1 24.1 0.00 0.00 0.00 50 1009.2
20260507201016 12 248 16.1 29.0 0.00 0.00 0.00 50 1009.5
20260507200016 12 270 12.9 27.4 0.00 0.00 0.00 50 1009.4
20260507195016 12 248 16.1 25.7 0.00 0.00 0.00 52 1009.5
20260507194016 12 248 16.1 30.6 0.00 0.00 0.00 54 1009.4
20260507193015 12 270 12.9 32.2 0.00 0.00 0.00 54 1009.7
20260507192015 12 248 14.5 22.5 0.00 0.00 0.00 55 1009.7
20260507191036 11 293 8.0 22.5 0.00 0.00 0.00 52 1009.6
20260507190116 12 248 11.3 20.9 0.00 0.00 0.00 53 1009.7
20260507185016 12 270 11.3 22.5 0.00 0.00 0.00 53 1009.8
20260507184016 12 248 11.3 24.1 0.00 0.00 0.00 52 1009.8
20260507183136 12 248 11.3 24.1 0.00 0.00 0.00 54 1009.9
20260507182015 12 270 11.3 20.9 0.00 0.00 0.00 57 1009.9
20260507181016 12 248 14.5 24.1 0.00 0.00 0.00 54 1010.0
20260507180035 11 270 9.7 19.3 0.00 0.00 0.00 55 1010.1
20260507175015 12 270 9.7 20.9 0.00 0.00 0.00 54 1010.1
20260507174016 12 248 12.9 24.1 0.00 0.00 0.00 55 1010.1
20260507173035 12 248 14.5 25.7 0.00 0.00 0.00 53 1010.1
20260507172036 12 248 12.9 22.5 0.00 0.00 0.00 54 1010.3
20260507171036 12 270 11.3 17.7 0.00 0.00 0.00 54 1010.3
20260507170025 12 248 12.9 20.9 0.00 0.00 0.00 53 1010.2
20260507165016 11 225 9.7 19.3 0.00 0.00 0.00 55 1010.2
20260507164016 11 293 6.4 14.5 0.00 0.00 0.00 54 1010.3
20260507163015 11 270 8.0 14.5 0.00 0.00 0.00 55 1010.3
20260507162036 12 248 12.9 25.7 0.00 0.00 0.00 54 1010.3
20260507161016 11 248 9.7 20.9 0.00 0.00 0.00 56 1010.4
20260507160016 11 248 11.3 22.5 0.00 0.00 0.00 53 1010.4
20260507155016 11 270 6.4 16.1 0.00 0.00 0.00 57 1010.3
20260507154016 11 315 9.7 19.3 0.00 0.00 0.00 54 1010.3
20260507153056 11 248 12.9 22.5 0.00 0.00 0.00 54 1010.3
20260507152036 11 270 8.0 19.3 0.00 0.00 0.00 55 1010.3
20260507151056 11 270 11.3 16.1 0.00 0.00 0.00 53 1010.5
20260507150036 11 248 8.0 20.9 0.00 0.00 0.00 62 1010.4
20260507145016 11 270 6.4 17.7 0.00 0.00 0.00 61 1010.4
20260507144016 11 248 11.3 19.3 0.00 0.00 0.00 66 1010.6
20260507143016 10 225 9.7 20.9 0.00 0.00 0.00 63 1010.3
20260507142036 10 270 6.4 16.1 0.00 0.00 0.00 66 1010.4
20260507141036 10 270 4.8 12.9 0.00 0.00 0.00 70 1010.5
20260507140016 9 248 6.4 17.7 0.00 0.00 0.00 71 1010.6
20260507135016 9 248 11.3 17.7 0.00 0.00 0.00 72 1010.7
20260507134016 8 248 11.3 16.1 0.00 0.00 0.00 72 1010.8
20260507133016 8 248 4.8 12.9 0.00 0.00 0.00 75 1010.9
20260507132016 8 225 6.4 16.1 0.00 0.00 0.00 77 1010.9
20260507131036 7 248 6.4 12.9 0.00 0.00 0.00 79 1010.9
20260507130016 7 248 8.0 14.5 0.00 0.00 0.00 79 1010.9
20260507125016 7 248 8.0 12.9 0.00 0.00 0.00 80 1010.9
20260507124016 7 248 9.7 14.5 0.00 0.00 0.00 80 1011.0
20260507123016 7 248 8.0 12.9 0.00 0.00 0.00 81 1010.9
20260507122036 7 248 6.4 14.5 0.00 0.00 0.00 83 1010.7
20260507121016 6 248 8.0 14.5 0.00 0.00 0.00 83 1010.8
20260507120016 6 248 6.4 12.9 0.00 0.00 0.00 85 1010.7